Погода в Нердве

Россия / Пермский край     58°41′48″N   55°02′39″E
темп.,
°C
ветер,
м/с
пор.,
м/с
влажн.,
%
обл.,
%
осадки,
мм/ч
давл.,
гПа
погр.,
м
9 мая, вс
вс923:00+9с11935 0.2 101710
02:00+9вюв11945 0.0 101710
05:00+8юв11925 0.0 101710
08:00+12вюв23770 0.0 1017150
11:00+17ююв23580 0.0 1017789
14:00+21ююв36380 0.0 10161987
17:00+22ю36356 0.0 10162442
20:00+18юв235545 0.0 101758
10 мая, пн
пн1023:00+13юв246856 0.0 101874
02:00+12ю26713 0.0 1019100
05:00+10ююв24776 0.0 102068
08:00+15ююв37624 0.0 1021263
11:00+20ю35445 0.0 1021896
14:00+23ю353258 0.0 10212590
17:00+23ююз3531100 0.0 10222558
20:00+18ссз3762100 0.0 1023275
11 мая, вт
вт1123:00+14ссв277899 0.0 1024185
02:00+14ссз2685100 0.1 1026232
05:00+13сз259399 0.2 1027178
08:00+13с3493100 0.3 1028313
11:00+12с238999 0.5 1029274
14:00+18сз236278 0.0 10291053
17:00+18сз246086 0.0 1029984
20:00+17ссз116598 0.0 102920
12 мая, ср
ср1223:00+12ссв127595 0.0 103011
02:00+10ссв1274100 0.0 103111
05:00+9с22695 0.0 103111
08:00+13с12526 0.0 1032188
11:00+18ссз123611 0.0 1031745
14:00+22зсз223586 0.0 10301179
17:00+22сз2337100 0.0 10301369
20:00+19з115371 0.0 102911
13 мая, чт
чт1323:00+15зсз116529 0.0 103011
02:00+13зсз11705 0.0 103010
05:00+12з117671 0.0 103010
08:00+17зсз12615 0.0 1030159
11:00+22сз12445 0.0 1030901
14:00+25зсз12362 0.0 10291623
17:00+26сз12343 0.0 10281951
20:00+22в11490 0.0 102811